Location: Newark
(48.1236°N, 0.7169°W)
Time: 13:14:33
(UTC+00:00)

Envisat - Pass Details

Date: 21 November 2019
Orbit: 764 x 766 km, 98.1° (Epoch: 08 December)

Event Time Altitude Azimuth Distance (km) Brightness Sun altitude
Rises 06:23:49 0° 19° (NNE) 3,243 6.3 -9.0°
Reaches altitude 10° 06:26:16 10° 27° (NNE) 2,312 5.6 -8.6°
Maximum altitude 06:31:04 40° 97° (E) 1,119 4.6 -7.9°
Drops below altitude 10° 06:35:48 10° 167° (SSE) 2,295 6.0 -7.2°
Sets 06:38:14 0° 174° (S) 3,216 6.6 -6.8°
